EW8041 Weather Reports


Display with metric or nautical units.
time (UTC)temp
F
wind
direction
speed
MPH
gust
MPH
rain 1hr
in
rain 24hr
in
rain mn
in
humidity
%
barometer
mb
20190916200322 96 103 0.0 2.0 0.00 0.00 0.00 40 1013.9
20190916195129 95 333 3.0 4.0 0.00 0.00 0.00 38 1014.0
20190916193923 95 304 2.0 4.0 0.00 0.00 0.00 38 1014.2
20190916192724 96 107 2.0 3.0 0.00 0.00 0.00 41 1014.3
20190916191537 95 314 2.0 3.0 0.00 0.00 0.00 41 1014.5
20190916190331 96 13 1.0 3.0 0.00 0.00 0.00 42 1014.8
20190916185126 96 338 3.0 6.0 0.00 0.00 0.00 40 1014.8
20190916183920 95 319 4.0 7.0 0.00 0.00 0.00 40 1015.1
20190916182733 96 221 3.0 5.0 0.00 0.00 0.00 40 1015.2
20190916181528 96 320 0.0 1.0 0.00 0.00 0.00 42 1015.4
20190916180322 94 323 2.0 4.0 0.00 0.00 0.00 42 1015.5
20190916175136 95 10 2.0 5.0 0.00 0.00 0.00 41 1015.6
20190916173931 96 339 2.0 3.0 0.00 0.00 0.00 41 1015.9
20190916172726 94 306 2.0 3.0 0.00 0.00 0.00 42 1016.1
20190916171538 96 185 1.0 3.0 0.00 0.00 0.00 41 1016.3
20190916170333 94 9 1.0 3.0 0.00 0.00 0.00 44 1016.4
20190916165127 93 323 1.0 2.0 0.00 0.00 0.00 45 1016.4
20190916163922 94 0.0 0.0 0.00 0.00 0.00 46 1016.6
20190916162734 93 161 1.0 2.0 0.00 0.00 0.00 44 1016.7
20190916161529 92 22 0.0 1.0 0.00 0.00 0.00 48 1016.8
20190916160324 91 328 1.0 3.0 0.00 0.00 0.00 53 1017.1
20190916155137 89 244 0.0 2.0 0.00 0.00 0.00 54 1017.0
20190916153931 91 0.0 0.0 0.00 0.00 0.00 53 1017.1
20190916152725 88 0.0 0.0 0.00 0.00 0.00 57 1017.4
20190916151525 89 0.0 0.0 0.00 0.00 0.00 56 1017.4
20190916150321 87 115 1.0 2.0 0.00 0.00 0.00 57 1017.4
20190916145127 87 213 0.0 1.0 0.00 0.00 0.00 59 1017.6
20190916143921 83 248 2.0 2.0 0.00 0.00 0.00 65 1017.6
20190916142734 83 166 0.0 1.0 0.00 0.00 0.00 66 1017.5
20190916141530 81 252 1.0 2.0 0.00 0.00 0.00 68 1017.6
20190916140325 82 305 0.0 1.0 0.00 0.00 0.00 67 1017.6
20190916135137 81 0.0 0.0 0.00 0.00 0.00 71 1017.5
20190916133932 80 0.0 0.0 0.00 0.00 0.00 73 1017.4
20190916132726 77 0.0 0.0 0.00 0.00 0.00 77 1017.4
20190916131521 76 0.0 0.0 0.00 0.00 0.00 79 1017.1
20190916130328 76 0.0 0.0 0.00 0.00 0.00 81 1017.1
20190916125122 74 0.0 0.0 0.00 0.00 0.00 85 1016.9
20190916123923 73 0.0 0.0 0.00 0.00 0.00 89 1017.0
20190916122736 72 337 0.0 1.0 0.00 0.00 0.00 89 1017.0
20190916121532 69 0.0 0.0 0.00 0.00 0.00 96 1016.7
20190916120328 68 0.0 0.0 0.00 0.00 0.00 96 1016.6
20190916115121 68 0.0 0.0 0.00 0.00 0.00 96 1016.6
20190916113934 68 0.0 0.0 0.00 0.00 0.00 96 1016.5
20190916112729 68 0.0 0.0 0.00 0.00 0.00 96 1016.4
20190916111524 68 0.0 0.0 0.00 0.00 0.00 95 1016.4
20190916110337 68 0.0 0.0 0.00 0.00 0.00 94 1016.4
20190916105131 68 0.0 0.0 0.00 0.00 0.00 94 1016.3
20190916103926 68 0.0 0.0 0.00 0.00 0.00 94 1016.3
20190916102721 68 0.0 0.0 0.00 0.00 0.00 94 1016.3
20190916101534 68 0.0 0.0 0.00 0.00 0.00 94 1016.1
20190916100328 69 0.0 0.0 0.00 0.00 0.00 94 1016.0
20190916095123 69 0.0 0.0 0.00 0.00 0.00 93 1015.9
20190916093936 69 0.0 0.0 0.00 0.00 0.00 93 1016.1
20190916092731 69 0.0 0.0 0.00 0.00 0.00 93 1015.9
20190916091526 69 0.0 0.0 0.00 0.00 0.00 92 1015.9
20190916090320 69 0.0 0.0 0.00 0.00 0.00 92 1015.9
20190916085133 69 0.0 0.0 0.00 0.00 0.00 93 1015.7
20190916083928 70 0.0 0.0 0.00 0.00 0.00 91 1015.6
20190916082723 70 0.0 0.0 0.00 0.00 0.00 92 1015.6
20190916081524 70 0.0 0.0 0.00 0.00 0.00 91 1015.3
20190916080324 70 0.0 0.0 0.00 0.00 0.00 91 1015.5
20190916075137 70 0.0 0.0 0.00 0.00 0.00 91 1015.6
20190916073932 70 0.0 0.0 0.00 0.00 0.00 89 1015.6
20190916072727 71 0.0 0.0 0.00 0.00 0.00 88 1015.7
20190916071522 71 0.0 0.0 0.00 0.00 0.00 88 1015.5
20190916070335 71 0.0 0.0 0.00 0.00 0.00 87 1015.7
20190916065129 71 0.0 0.0 0.00 0.00 0.00 88 1015.7
20190916063924 72 0.0 0.0 0.00 0.00 0.00 88 1015.8
20190916062739 72 0.0 0.0 0.00 0.00 0.00 87 1015.6
20190916061531 72 0.0 0.0 0.00 0.00 0.00 86 1015.6
20190916060326 73 0.0 0.0 0.00 0.00 0.00 85 1015.8
20190916055121 73 0.0 0.0 0.00 0.00 0.00 84 1015.8
20190916053934 73 0.0 0.0 0.00 0.00 0.00 83 1015.9
20190916052729 74 0.0 0.0 0.00 0.00 0.00 83 1015.8
20190916051524 74 0.0 0.0 0.00 0.00 0.00 81 1015.8
20190916050337 75 0.0 0.0 0.00 0.00 0.00 81 1015.9
20190916045132 75 0.0 0.0 0.00 0.00 0.00 79 1015.9
20190916043927 76 0.0 0.0 0.00 0.00 0.00 79 1015.8
20190916042721 76 0.0 0.0 0.00 0.00 0.00 78 1016.0
20190916041534 76 0.0 0.0 0.00 0.00 0.00 76 1015.8
20190916040328 76 0.0 0.0 0.00 0.00 0.00 75 1015.8
20190916035123 77 0.0 0.0 0.00 0.00 0.00 76 1015.9
20190916033924 77 0.0 0.0 0.00 0.00 0.00 74 1015.6
20190916032725 77 0.0 0.0 0.00 0.00 0.00 75 1015.7
20190916031537 77 0.0 0.0 0.00 0.00 0.00 73 1015.6
20190916030332 78 0.0 0.0 0.00 0.00 0.00 73 1015.6
20190916025127 78 0.0 0.0 0.00 0.00 0.00 74 1015.3
20190916023922 79 0.0 0.0 0.00 0.00 0.00 73 1015.4
20190916022734 79 0.0 0.0 0.00 0.00 0.00 71 1015.4
20190916021530 79 0.0 0.0 0.00 0.00 0.00 69 1015.3
20190916020324 79 0.0 0.0 0.00 0.00 0.00 68 1015.1
20190916015137 80 0.0 0.0 0.00 0.00 0.00 66 1015.1
20190916013931 81 0.0 0.0 0.00 0.00 0.00 66 1015.1
20190916012726 81 0.0 0.0 0.00 0.00 0.00 66 1014.8
20190916011520 82 0.0 0.0 0.00 0.00 0.00 63 1014.8
20190916010333 83 0.0 0.0 0.00 0.00 0.00 61 1014.7
20190916005128 84 0.0 0.0 0.00 0.00 0.00 61 1014.5
20190916003923 85 0.0 0.0 0.00 0.00 0.00 59 1014.3
20190916002735 86 0.0 0.0 0.00 0.00 0.00 58 1014.3
20190916001530 87 0.0 0.0 0.00 0.00 0.00 56 1014.3
20190916000325 88 0.0 0.0 0.00 0.00 0.00 52 1014.2
20190915235138 89 0.0 0.0 0.00 0.00 0.00 49 1014.4
20190915233932 89 0.0 0.0 0.00 0.00 0.00 48 1014.4
20190915232727 90 0.0 0.0 0.00 0.00 0.00 46 1014.4
20190915231529 91 0.0 0.0 0.00 0.00 0.00 46 1014.4
20190915230323 93 0.0 0.0 0.00 0.00 0.00 46 1014.3
20190915225124 94 0.0 0.0 0.00 0.00 0.00 42 1014.2
20190915223936 93 0.0 0.0 0.00 0.00 0.00 44 1014.3
20190915222731 94 0.0 0.0 0.00 0.00 0.00 42 1014.3
20190915221525 94 37 0.0 3.0 0.00 0.00 0.00 41 1014.2
20190915220320 94 327 0.0 2.0 0.00 0.00 0.00 42 1014.1
20190915215133 94 335 0.0 3.0 0.00 0.00 0.00 43 1014.3
20190915213928 92 22 0.0 5.0 0.00 0.00 0.00 45 1014.2
20190915212722 92 0.0 0.0 0.00 0.00 0.00 47 1014.3
20190915211536 93 0.0 1.0 0.00 0.00 0.00 45 1014.5
20190915210330 93 331 2.0 3.0 0.00 0.00 0.00 45 1014.7
20190915205125 92 111 2.0 3.0 0.00 0.00 0.00 45 1014.8
20190915203938 93 136 1.0 5.0 0.00 0.00 0.00 47 1014.9
20190915202732 93 127 0.0 1.0 0.00 0.00 0.00 46 1015.1
20190915201528 93 326 2.0 3.0 0.00 0.00 0.00 45 1015.2